Back to catalog

STARLINK-34796

AliveCommunicationsVLEO
NORAD 65205·PAYLOAD·🇺🇸 United States

Launched Aug 14, 2025 from Cape Canaveral Space Force Station

Loading…

Next Passes (next 24 hours)

TLE

FreshSource: CelesTrak SupGP

Epoch: Sep 15, 2026, 03:42 UTC

1 65205C 25176H   26258.15465278  .00077665  00000+0  22946-2 0  2583
2 65205  53.1589 348.7948 0001098  92.6935 252.2841 15.34352305    12

Track STARLINK-34796 in real time with AllMySat

Download on the App Store